West Palm Beach, FL

9:47 PM EST on November 16, 2019 (GMT -0500)
Palm Beach International

Weather History for KPBI - September, 2019

Change the Weather History Date:

Sunday, September 1, 2019

  Actual Average Record
Temperature  
Mean Temperature 85 °F 82 °F  
Max Temperature 92 °F 89 °F 94 °F (1998)
Min Temperature 77 °F 76 °F 69 °F (1919)
Degree Days  
Heating Degree Days 0 0  
Month to date heating degree days 0 0  
Since 1 July heating degree days 0 0  
Cooling Degree Days 20 17  
Month to date cooling degree days 20 17  
Year to date cooling degree days 3186 2723  
Growing Degree Days 34 (Base 50)    
Moisture  
Dew Point 75 °F    
Average Humidity 75    
Maximum Humidity 94    
Minimum Humidity 56    
Precipitation  
Precipitation 0.09 in 0.29 in 2.38 in (1977)
Month to date precipitation 0.09 0.29  
Year to date precipitation 44.05 41.01  
Snow  
Snow 0.00 in - - ()
Month to date snowfall 0.0  
Since 1 July snowfall 0.0  
Since 1 September snowfall 0.0  
Snow Depth 0.00 in    
Sea Level Pressure  
Sea Level Pressure 29.87 in    
Wind  
Wind Speed 11 mph (North)    
Max Wind Speed 23 mph    
Max Gust Speed 30 mph    
Visibility 10 miles    
Events Rain , Thunderstorm    
T = Trace of Precipitation, MM = Missing Value Source: NWS Daily Summary

Daily Weather History Graph

Daily Weather History Graph

Search for Another Location

Airport or City:

Astronomy

Sep. 01, 2019 Rise Set
Actual Time 6:59 AM EDT 7:40 PM EDT
Civil Twilight 6:36 AM EDT 8:04 PM EDT
Nautical Twilight 6:08 AM EDT 8:31 PM EDT
Astronomical Twilight 5:40 AM EDT 8:59 PM EDT
Moon 9:17 AM EDT (9/1) 9:41 PM EDT (9/1)
Length of Visible Light 13h 27m
Length of Day
12h 40m
Waxing Crescent, 8% of the Moon is Illuminated
Sep 1
Waxing Crescent
Sep 5
First Quarter
Sep 14
Full
Sep 21
Last Quarter
Sep 28
New

Hourly Weather History & Observations

Time (EDT) Temp. Heat Index Dew Point Humidity Pressure Visibility Wind Dir Wind Speed Gust Speed Precip Events Conditions
12:06 AM 78.1 °F - 73.0 °F 84% 29.94 in 9.0 mi East 9.2 mph - 0.18 in Rain , Thunderstorm Light Thunderstorms and Rain
12:21 AM 79.0 °F - 73.9 °F 84% 29.94 in 10.0 mi Calm Calm - 0.18 in   Mostly Cloudy
12:53 AM 78.1 °F - 75.0 °F 90% 29.94 in 10.0 mi NNE 6.9 mph - 0.18 in   Mostly Cloudy
1:53 AM 80.1 °F 84.5 °F 73.9 °F 81% 29.92 in 10.0 mi NNE 6.9 mph - N/A   Mostly Cloudy
2:53 AM 79.0 °F - 73.9 °F 84% 29.91 in 10.0 mi North 3.5 mph - N/A   Mostly Cloudy
3:53 AM 78.1 °F - 75.0 °F 90% 29.90 in 10.0 mi North 3.5 mph - N/A   Mostly Cloudy
4:53 AM 78.1 °F - 75.9 °F 93% 29.89 in 10.0 mi Calm Calm - N/A   Scattered Clouds
5:53 AM 77.0 °F - 75.0 °F 94% 29.89 in 10.0 mi NW 3.5 mph - N/A   Scattered Clouds
6:53 AM 79.0 °F - 73.9 °F 84% 29.90 in 10.0 mi Calm Calm - 0.02 in   Mostly Cloudy
7:53 AM 80.1 °F 85.8 °F 77.0 °F 90% 29.91 in 10.0 mi WNW 4.6 mph - 0.07 in   Mostly Cloudy
8:53 AM 81.0 °F 87.9 °F 77.0 °F 88% 29.91 in 10.0 mi NW 5.8 mph - N/A   Mostly Cloudy
9:53 AM 86.0 °F 98.3 °F 78.1 °F 77% 29.93 in 10.0 mi North 4.6 mph - N/A   Mostly Cloudy
10:53 AM 89.1 °F 99.1 °F 75.0 °F 63% 29.92 in 10.0 mi NE 12.7 mph - N/A   Mostly Cloudy
11:53 AM 89.1 °F 97.0 °F 73.0 °F 59% 29.91 in 10.0 mi North 15.0 mph - N/A   Mostly Cloudy
12:53 PM 90.0 °F 97.9 °F 73.0 °F 57% 29.90 in 10.0 mi North 16.1 mph 25.3 mph N/A   Mostly Cloudy
1:53 PM 91.0 °F 99.3 °F 73.0 °F 55% 29.87 in 10.0 mi North 18.4 mph 24.2 mph N/A   Mostly Cloudy
2:53 PM 91.9 °F 100.7 °F 73.0 °F 54% 29.85 in 10.0 mi North 17.3 mph 24.2 mph N/A   Mostly Cloudy
3:53 PM 89.1 °F 98.0 °F 73.9 °F 61% 29.83 in 10.0 mi North 20.7 mph - N/A   Mostly Cloudy
4:53 PM 90.0 °F 97.9 °F 73.0 °F 57% 29.81 in 10.0 mi North 18.4 mph 28.8 mph N/A   Mostly Cloudy
5:53 PM 88.0 °F 96.5 °F 73.9 °F 63% 29.81 in 10.0 mi North 15.0 mph 25.3 mph N/A   Mostly Cloudy
6:53 PM 86.0 °F 93.8 °F 73.9 °F 67% 29.81 in 10.0 mi North 18.4 mph 26.5 mph N/A   Mostly Cloudy
7:53 PM 81.0 °F 86.7 °F 75.0 °F 82% 29.82 in 10.0 mi NNW 11.5 mph - N/A   Mostly Cloudy
8:53 PM 81.0 °F 86.7 °F 75.0 °F 82% 29.82 in 10.0 mi NNW 15.0 mph - N/A   Mostly Cloudy
9:53 PM 79.0 °F - 75.0 °F 88% 29.81 in 10.0 mi NW 11.5 mph - N/A   Mostly Cloudy
10:53 PM 80.1 °F 85.4 °F 75.9 °F 87% 29.80 in 10.0 mi NW 16.1 mph - N/A   Mostly Cloudy
11:53 PM 80.1 °F 85.4 °F 75.9 °F 87% 29.78 in 10.0 mi NW 15.0 mph - N/A   Mostly Cloudy